sat.trackr.live / text

‹ back to catalog

2025-013C

NORAD 62731 · 2025-013C

PAYLOAD ACTIVE UNKNOWN

§ Identity

Operator
Country
PRC
Launch date
2025-01-20
Launch site
JSC
Launch vehicle
Mass (kg)
RCS (m²)

External: N2YO · Heavens-Above · Gunter

§ Orbital elements

Epoch: 2026-09-22T21:43:24.483072Z

Period
95.25 min
Inclination
97.6597°
Eccentricity
0.0014940
Mean motion
15.11805748 rev/d
Perigee alt
520.4 km
Apogee alt
541.0 km
Semi-major
6,908.8 km
B*
1.3260e-4
RAAN
75.1241°
Arg perigee
42.3900°
Mean anomaly
317.8481°
Rev number
9,209

§ Raw data

2025-013C1 62731U 25013C   26265.90514448  .00002203  00000+0  13260-3 0  99972 62731  97.6597  75.1241 0014940  42.3900 317.8481 15.11805748 92092

JSON: /api/v1/satellites/62731 · /tle

For live sub-satellite position, see the globe view (requires WebGL).

§ Visibility from observer

Set your observer location to see the next 7 days of passes ≥ 10°. The values pass through the URL so the page stays shareable.

No JS? Fill the form by hand. The geolocation button needs JavaScript.